Pittsfield, MA

10:00 PM EST on December 13, 2017 (GMT -0500)
Pittsfield Municipal

Weather History for KPSF - April, 2014

Change the Weather History Date:

Sunday, April 27, 2014

  Actual Average Record
Temperature  
Mean Temperature 43 °F 49 °F  
Max Temperature 50 °F 60 °F 86 °F (1962)
Min Temperature 36 °F 38 °F 27 °F (1933)
Degree Days  
Heating Degree Days 22 16  
Month to date heating degree days 565 581  
Since 1 July heating degree days 7348 6988  
Cooling Degree Days 0 0  
Month to date cooling degree days 1 0  
Year to date cooling degree days 1 0  
Moisture  
Dew Point 34 °F    
Average Humidity 70    
Maximum Humidity 86    
Minimum Humidity 53    
Precipitation  
Precipitation 0.01 in 0.11 in 0.64 in (1945)
Month to date precipitation 2.39 3.56  
Year to date precipitation 11.90 12.53  
Sea Level Pressure  
Sea Level Pressure 29.92 in    
Wind  
Wind Speed 10 mph (NW)    
Max Wind Speed 21 mph    
Max Gust Speed 27 mph    
Visibility 10 miles    
Events Rain    
T = Trace of Precipitation, MM = Missing Value Source: NWS Daily Summary

Daily Weather History Graph

Daily Weather History Graph

Search for Another Location

Airport or City:

Trip Planner

Search our weather history database for the weather conditions in past years. The results will help you decide how hot, cold, wet, or windy it might be!

Date:

Astronomy

Apr. 27, 2014 Rise Set
Actual Time 5:53 AM EDT 7:48 PM EDT
Civil Twilight 5:23 AM EDT 8:18 PM EDT
Nautical Twilight 4:46 AM EDT 8:55 PM EDT
Astronomical Twilight 4:06 AM EDT 9:36 PM EDT
Moon 4:55 AM EDT (4/27) 6:17 PM EDT (4/27)
Length of Visible Light 14h 55m
Length of Day
13h 54m
Waning Crescent, 3% of the Moon is Illuminated
Apr 27
Waning Crescent
Apr 29
New
May 6
First Quarter
May 14
Full
May 21
Last Quarter

Hourly Weather History & Observations

Time (EDT) Temp. Windchill Dew Point Humidity Pressure Visibility Wind Dir Wind Speed Gust Speed Precip Events Conditions
12:54 AM 41.0 °F 32.2 °F 37.0 °F 86% 29.83 in 9.0 mi West 18.4 mph 25.3 mph N/A   Overcast
1:21 AM 41.0 °F 32.8 °F 37.0 °F 86% 29.83 in 10.0 mi WNW 16.1 mph 23.0 mph N/A   Overcast
1:54 AM 39.9 °F 33.4 °F 36.0 °F 86% 29.82 in 10.0 mi West 10.4 mph - N/A   Overcast
2:54 AM 39.9 °F 32.9 °F 36.0 °F 86% 29.82 in 10.0 mi WNW 11.5 mph - N/A   Overcast
3:28 AM 39.0 °F 32.3 °F 35.1 °F 86% 29.83 in 10.0 mi WNW 10.4 mph - N/A   Overcast
3:54 AM 39.0 °F 30.3 °F 35.1 °F 86% 29.83 in 10.0 mi WNW 16.1 mph 20.7 mph N/A   Overcast
4:24 AM 39.0 °F 31.8 °F 35.1 °F 86% 29.84 in 10.0 mi West 11.5 mph 20.7 mph N/A   Overcast
4:32 AM 39.0 °F 31.4 °F 35.1 °F 86% 29.84 in 10.0 mi West 12.7 mph - N/A   Overcast
4:40 AM 39.0 °F 32.3 °F 35.1 °F 86% 29.84 in 10.0 mi WNW 10.4 mph - N/A   Overcast
4:54 AM 39.0 °F 30.6 °F 35.1 °F 86% 29.83 in 10.0 mi WNW 15.0 mph - N/A   Overcast
5:08 AM 39.0 °F 31.4 °F 35.1 °F 86% 29.85 in 10.0 mi WNW 12.7 mph - N/A   Overcast
5:35 AM 39.0 °F 30.3 °F 34.0 °F 82% 29.85 in 10.0 mi WNW 16.1 mph - N/A   Overcast
5:43 AM 39.0 °F 30.6 °F 34.0 °F 82% 29.86 in 10.0 mi West 15.0 mph - N/A   Overcast
5:54 AM 37.9 °F 30.9 °F 34.0 °F 86% 29.85 in 10.0 mi WNW 10.4 mph - N/A   Overcast
6:29 AM 37.9 °F 30.9 °F 34.0 °F 86% 29.88 in 10.0 mi West 10.4 mph - N/A   Overcast
6:54 AM 37.9 °F 30.5 °F 34.0 °F 86% 29.89 in 10.0 mi WNW 11.5 mph - N/A   Overcast
7:54 AM 39.0 °F 31.0 °F 35.1 °F 86% 29.90 in 8.0 mi WNW 13.8 mph 21.9 mph N/A   Overcast
8:54 AM 39.9 °F 33.4 °F 35.1 °F 83% 29.92 in 10.0 mi NW 10.4 mph 18.4 mph N/A   Overcast
9:32 AM 41.0 °F 34.7 °F 35.1 °F 79% 29.92 in 10.0 mi NW 10.4 mph 17.3 mph N/A   Overcast
9:54 AM 42.1 °F 35.7 °F 35.1 °F 76% 29.92 in 10.0 mi NW 11.5 mph 20.7 mph N/A   Overcast
10:54 AM 41.0 °F 34.3 °F 37.0 °F 86% 29.95 in 6.0 mi WNW 11.5 mph - 0.01 in Rain Light Rain
11:14 AM 42.1 °F 36.6 °F 37.9 °F 85% 29.95 in 6.0 mi NW 9.2 mph - 0.00 in Rain Light Rain
12:54 PM 45.0 °F 40.6 °F 37.0 °F 74% 29.96 in 10.0 mi North 8.1 mph - 0.00 in   Overcast
1:40 PM 45.0 °F 40.6 °F 35.1 °F 68% 29.96 in 10.0 mi NNW 8.1 mph - 0.00 in   Overcast
1:54 PM 46.9 °F - 34.0 °F 61% 29.96 in 10.0 mi Variable 6.9 mph 17.3 mph 0.00 in   Overcast
2:54 PM 46.0 °F 41.0 °F 35.1 °F 66% 29.99 in 10.0 mi WNW 10.4 mph 18.4 mph 0.00 in Rain Light Rain
4:54 PM 48.9 °F - 34.0 °F 56% 29.98 in 10.0 mi NNE 13.8 mph 21.9 mph N/A   Mostly Cloudy
5:05 PM 48.9 °F - 34.0 °F 56% 29.99 in 10.0 mi North 12.7 mph 23.0 mph N/A   Mostly Cloudy
5:54 PM 48.9 °F - 32.0 °F 52% 29.99 in 10.0 mi NNW 15.0 mph 21.9 mph N/A   Clear
6:54 PM 46.9 °F - 30.9 °F 54% 30.01 in 10.0 mi North 10.4 mph - N/A   Clear
7:54 PM 43.0 °F - 32.0 °F 65% 30.05 in 10.0 mi Calm Calm - N/A   Mostly Cloudy
8:54 PM 42.1 °F 37.1 °F 30.9 °F 65% 30.07 in 10.0 mi NNE 8.1 mph - N/A   Clear
9:54 PM 39.0 °F 36.8 °F 30.9 °F 73% 30.08 in 10.0 mi East 3.5 mph - N/A   Clear
10:54 PM 39.9 °F 36.7 °F 30.9 °F 70% 30.09 in 10.0 mi North 4.6 mph - N/A   Partly Cloudy
11:54 PM 36.0 °F 30.3 °F 30.0 °F 79% 30.11 in 10.0 mi West 6.9 mph - N/A   Clear